FLOCK 4BE-2 (60511 NORAD) Tracking and Keplerian Element Data

This shows tracking and keplerian element data for the satellite.

Feedback or suggestion? Click here.




ElementValue
Catalog60511
NameFLOCK 4BE-2
Epoch Orbit865
Epoch Day286.80254549
Epoch Year2024
RAAN1.5686
Inclination97.4415
Eccentricity0.0003466
Argument of Perigee314.1438
Mean Anonmoly45.9512
Mean Motion15.20555094
Decay Rate0.00023747
L11 60511U 24149AV 24286.80254549 .00023747 00000+0 10853-2 0 9993
L22 60511 97.4415 1.5686 0003466 314.1438 45.9512 15.20555094 8655



Live tracking and technical data element details for FLOCK 4BE-2 (NORAD 60511). FLOCK 4BE-2 can be tracked NOW for your location showing map with azimuth and elevation plus other details from your city location.







IsCatalogInMostPopularTable: catalog: 60511, numindb: 6
Update: records affected: 1



GetName: 60511 FLOCK 4BE-2

Hit Count: updated at: Wed, 04 Dec 2024 18:40:26 GMT